[[{"header":{"parameterUnit":"m.s-1","parameterCategory":2,"la1":30.2991,"la2":30.254,"lo1":-89.0895,"lo2":-89.0444,"dy":0.0017,"dx":0.0017,"nx":28,"ny":28,"refTime":"2023-10-07T21:00:00:Z","depth":"0","parameterNumber":2,"parameterNumberName":"U-component_of_CURRENTS"},"data":[0,0,0,0,0,0,0,0,0,0,0,0,0,0,0,0,0,0,0,0,0,0,0,0,0,0,0,0,0,0,0,0,0,0,0,0,0,0,0,0,0,0,0,0,0,0,0,0,0,0,0,0,0,0,0,0,0,0,0.2101,0.2101,0,0.2109,0.2109,0.2109,0.2111,0.2111,0.2111,0.2111,0.2126,0.2126,0.2126,0,0,0,0,0,0,0,0,0,0,0,0,0,0.2087,0.2087,0.2101,0.2101,0.2101,0.2109,0.2109,0.2109,0.2111,0.2111,0.2111,0.2111,0.2126,0.2126,0.2126,0,0,0,0,0,0,0,0,0,0,0,0,0,0.2092,0.2087,0.2101,0.2104,0.2104,0.2109,0.2109,0.2109,0.2111,0.2111,0.2111,0.2111,0.2126,0.2126,0.2127,0.2128,0,0,0.2128,0.2128,0,0,0,0,0,0,0,0,0.2092,0.2093,0.2103,0.2104,0.2104,0.211,0.211,0.2116,0.2111,0.2107,0.2111,0.2111,0.2122,0.2123,0.2122,0.2129,0.2129,0.2128,0.2128,0.2129,0.2129,0,0,0,0,0,0,0,0.2092,0.2092,0.2103,0.2104,0.2104,0.2106,0.2106,0.2111,0.2113,0.2107,0.2108,0.2111,0.2122,0.2122,0.2123,0.2129,0.2128,0.2129,0.2129,0.2129,0.2142,0.2142,0,0,0,0,0,0,0.2093,0.2092,0.2102,0.2103,0.21,0.2106,0.2107,0.2107,0.2113,0.2114,0.2111,0.2111,0.2121,0.2122,0.2123,0.2144,0.2129,0.2129,0.2129,0.2142,0.2142,0.2142,0,0,0,0,0,0,0.2093,0.2094,0.2102,0.2099,0.21,0.2106,0.2107,0.2107,0.211,0.2116,0.2117,0.2114,0.2121,0.2122,0.2128,0.2144,0.2129,0.213,0.2142,0.2142,0.2142,0.2173,0,0,0,0,0,0,0.2093,0.2094,0.2095,0.2099,0.2101,0.2111,0.2107,0.2107,0.2113,0.2113,0.2119,0.212,0.2121,0.2127,0.2129,0.2144,0.213,0.2142,0.2142,0.2142,0.2172,0.2174,0.2176,0,0,0,0,0,0.2092,0.2094,0.2095,0.2096,0.2102,0.2112,0.2113,0.2116,0.2113,0.2118,0.2117,0.212,0.2129,0.2128,0.2129,0.2145,0.2142,0.2142,0.2142,0.2171,0.2174,0.2176,0,0,0,0,0,0,0.2088,0.2094,0.2096,0.2099,0.2108,0.2113,0.2116,0.2118,0.212,0.212,0.2121,0.2122,0.2135,0.213,0.2129,0.2147,0.2136,0.2136,0.2157,0.216,0.2162,0.2183,0.2131,0,0,0,0,0,0.2088,0.2091,0.2099,0.2103,0.2107,0.2111,0.2115,0.2119,0.2122,0.2124,0.2126,0.2127,0.2136,0.2139,0.2144,0.2152,0.2182,0.2162,0.2164,0.2166,0.2182,0.2241,0.2251,0.2142,0.2142,0.2142,0,0,0.2086,0.2092,0.2092,0.2102,0.2107,0.2117,0.2113,0.2122,0.2133,0.2125,0.2135,0.2136,0.2139,0.2151,0.2156,0.215,0.2211,0.2166,0.2168,0.2184,0.2242,0.2253,0.2263,0.2142,0.2142,0.2142,0,0,0.2087,0.209,0.2094,0.2104,0.2117,0.2122,0.2126,0.2133,0.2138,0.2148,0.2147,0.2157,0.2161,0.2172,0.2177,0.2191,0.2221,0.2187,0.2217,0.2273,0.2284,0.2293,0.2346,0.236,0.2187,0.2188,0.2188,0,0.2087,0.2093,0.2098,0.211,0.212,0.2125,0.2138,0.2145,0.2153,0.2167,0.2155,0.2182,0.2175,0.221,0.221,0.2199,0.2238,0.221,0.2279,0.2289,0.2298,0.2351,0.2366,0.2189,0.2189,0.2189,0.2189,0,0.2092,0.2102,0.2107,0.2123,0.2136,0.2147,0.2162,0.2176,0.2181,0.2192,0.2223,0.2221,0.2245,0.2236,0.2227,0.2284,0.2293,0.2279,0.228,0.2312,0.2364,0.2379,0.2191,0.2191,0.219,0.219,0,0,0.2079,0.2105,0.2107,0.2121,0.2145,0.2156,0.2183,0.2213,0.2245,0.2249,0.2296,0.2295,0.2306,0.2312,0.2307,0.2342,0.2426,0.234,0.2342,0.2405,0.2564,0.2505,0.2516,0.2434,0.2436,0.2439,0.2575,0,0.2082,0.2105,0.212,0.2146,0.2159,0.2184,0.2213,0.2244,0.2272,0.2318,0.2331,0.2366,0.2332,0.2354,0.2386,0.2425,0.2468,0.2391,0.2513,0.2517,0.2471,0.2532,0.2443,0.2552,0.259,0.2593,0.2595,0,0.208,0.2099,0.2122,0.2167,0.2176,0.2197,0.2259,0.2288,0.2354,0.2381,0.2428,0.2446,0.2505,0.2465,0.2567,0.2526,0.2552,0.2571,0.2576,0.2525,0.2486,0.2524,0.2578,0.2555,0.2618,0.2616,0.2615,0,0.2064,0.2101,0.2121,0.2133,0.2183,0.2209,0.2241,0.2306,0.2349,0.2434,0.2484,0.2548,0.2602,0.2647,0.2678,0.2643,0.2791,0.2748,0.272,0.2716,0.2665,0.2652,0.2721,0.2826,0.2825,0.2825,0.2825,0,0.2057,0.2074,0.2116,0.2127,0.2164,0.2207,0.2264,0.2311,0.24,0.246,0.2519,0.2588,0.2654,0.2733,0.2739,0.2789,0.2849,0.2752,0.2756,0.267,0.2656,0.265,0.263,0.283,0.2829,0.2828,0.2827,0,0.2033,0.2058,0.2084,0.2137,0.2154,0.2183,0.2265,0.2314,0.2405,0.2497,0.2532,0.2659,0.2761,0.2814,0.2908,0.2876,0.2845,0.291,0.2801,0.2788,0.2697,0.268,0.2623,0.2537,0.2909,0.2909,0.2908,0,0.202,0.2031,0.208,0.2097,0.2119,0.2169,0.2207,0.2299,0.2358,0.2527,0.2571,0.2716,0.2791,0.2918,0.2907,0.2939,0.285,0.2855,0.275,0.2704,0.2692,0.2556,0.2477,0.2707,0.2705,0.2703,0.2702,0,0.2,0.2017,0.2039,0.2069,0.2102,0.2142,0.2206,0.2256,0.2375,0.2459,0.2587,0.2671,0.2807,0.2814,0.2859,0.2849,0.2725,0.2818,0.2814,0.258,0.2397,0.2311,0.2607,0.2687,0.2688,0.2689,0.269,0.2691,0.1983,0.1987,0.2012,0.2037,0.2068,0.2101,0.2114,0.2194,0.227,0.2376,0.2512,0.2602,0.27,0.275,0.2727,0.2668,0.2618,0.2597,0.2599,0.2479,0.2328,0.2582,0.2625,0.2626,0.2627,0.2628,0.2628,0,0.1948,0.1955,0.1979,0.1992,0.1994,0.2035,0.2094,0.2095,0.2136,0.2271,0.2352,0.248,0.2503,0.2564,0.2572,0.2493,0.2331,0.2435,0.2257,0.2202,0.2496,0.242,0.2367,0.2367,0.2367,0.2367,0.2367,0.2367,0.193,0.1924,0.1929,0.1906,0.1915,0.1892,0.1907,0.1925,0.1993,0.2076,0.216,0.2262,0.2466,0.2528,0.2492,0.2414,0.2243,0.2122,0.2109,0.2379,0.2394,0.2408,0.2335,0.2264,0.2263,0.1705,0.1701,0.1698]},{"header":{"parameterUnit":"m.s-1","parameterCategory":2,"la1":30.2991,"la2":30.254,"lo1":-89.0895,"lo2":-89.0444,"dy":0.0017,"dx":0.0017,"nx":28,"ny":28,"refTime":"2023-10-07T21:00:00:Z","depth":"0","parameterNumber":3,"parameterNumberName":"V-component_of_CURRENTS"},"data":[0,0,0,0,0,0,0,0,0,0,0,0,0,0,0,0,0,0,0,0,0,0,0,0,0,0,0,0,0,0,0,0,0,0,0,0,0,0,0,0,0,0,0,0,0,0,0,0,0,0,0,0,0,0,0,0,0,0,-0.0029,-0.003,0,-0.0066,-0.0066,-0.0066,-0.0093,-0.0093,-0.0094,-0.0094,-0.0155,-0.0156,-0.0158,0,0,0,0,0,0,0,0,0,0,0,0,0,-0.002,-0.002,-0.0029,-0.003,-0.003,-0.0066,-0.0066,-0.0067,-0.0093,-0.0093,-0.0094,-0.0094,-0.0154,-0.0156,-0.0158,0,0,0,0,0,0,0,0,0,0,0,0,0,-0.0037,-0.002,-0.0029,-0.0047,-0.0049,-0.0065,-0.0066,-0.0067,-0.0093,-0.0093,-0.0094,-0.0094,-0.0154,-0.0156,-0.0158,-0.0166,0,0,-0.0165,-0.0166,0,0,0,0,0,0,0,0,-0.0036,-0.0038,-0.0044,-0.0046,-0.0048,-0.0075,-0.0085,-0.0101,-0.0093,-0.0077,-0.0094,-0.0094,-0.013,-0.0134,-0.0141,-0.0169,-0.0172,-0.0165,-0.0166,-0.0167,-0.0168,0,0,0,0,0,0,0,-0.0035,-0.0037,-0.0044,-0.0045,-0.0047,-0.0066,-0.0069,-0.0089,-0.0102,-0.0078,-0.008,-0.0083,-0.0131,-0.0138,-0.0142,-0.0173,-0.0165,-0.0167,-0.0168,-0.0169,-0.0201,-0.02,0,0,0,0,0,0,-0.0027,-0.0035,-0.0043,-0.0045,-0.0042,-0.0066,-0.0069,-0.0066,-0.0102,-0.0107,-0.0083,-0.0084,-0.0135,-0.014,-0.0145,-0.0148,-0.0167,-0.0169,-0.0171,-0.0201,-0.0201,-0.02,0,0,0,0,0,0,-0.0027,-0.0027,-0.0042,-0.0041,-0.0044,-0.0066,-0.0063,-0.0067,-0.0072,-0.0105,-0.0111,-0.0084,-0.0135,-0.0142,-0.0155,-0.0151,-0.017,-0.0172,-0.0202,-0.0201,-0.0201,-0.016,0,0,0,0,0,0,-0.0026,-0.0027,-0.0023,-0.004,-0.0044,-0.0044,-0.0063,-0.0067,-0.0073,-0.0076,-0.0107,-0.0113,-0.0136,-0.0151,-0.0157,-0.0154,-0.0174,-0.0202,-0.0202,-0.0201,-0.0162,-0.0158,-0.0155,0,0,0,0,0,-0.0026,-0.0015,-0.0022,-0.0023,-0.0037,-0.0043,-0.0047,-0.0064,-0.0073,-0.0071,-0.0091,-0.0112,-0.015,-0.0153,-0.016,-0.0157,-0.0203,-0.0202,-0.0201,-0.0164,-0.0159,-0.0155,0,0,0,0,0,0,-0.001,-0.0017,-0.0025,-0.0018,-0.0028,-0.0048,-0.0048,-0.0059,-0.0074,-0.0076,-0.0107,-0.0115,-0.0125,-0.0144,-0.0146,-0.0163,-0.018,-0.018,-0.0149,-0.0145,-0.0141,-0.0134,-0.0176,0,0,0,0,0,-0.0003,0.0002,-0.0011,-0.0005,-0.0008,-0.0027,-0.0032,-0.0042,-0.0058,-0.0064,-0.0086,-0.0109,-0.0126,-0.0137,-0.0155,-0.0165,-0.0189,-0.0167,-0.0163,-0.016,-0.0158,-0.0198,-0.0198,-0.0197,-0.0197,-0.0197,0,0,0.0003,-0.0,0.0003,-0.0002,-0.0012,-0.0008,-0.0031,-0.0033,-0.0031,-0.0069,-0.0073,-0.0096,-0.0125,-0.0134,-0.0141,-0.0151,-0.017,-0.0159,-0.0156,-0.0155,-0.0197,-0.0197,-0.0197,-0.0196,-0.0196,-0.0196,0,0,0.0023,0.0018,0.003,0.0026,0.0018,0.0008,0.001,-0.0006,-0.0013,-0.0019,-0.0046,-0.0066,-0.009,-0.0112,-0.0126,-0.0113,-0.0148,-0.0117,-0.0096,-0.0135,-0.0135,-0.0136,-0.0154,-0.0157,-0.0117,-0.0117,-0.0117,0,0.0031,0.0045,0.0031,0.0041,0.0043,0.0019,0.0032,0.0022,0.0003,-0.0001,-0.0013,-0.0055,-0.0081,-0.0098,-0.0093,-0.0106,-0.0127,-0.0111,-0.0131,-0.0132,-0.0134,-0.0152,-0.0156,-0.0115,-0.0115,-0.0115,-0.0116,0,0.0058,0.0069,0.0076,0.0081,0.008,0.0088,0.0075,0.0072,0.0059,0.0043,0.0026,-0.0012,-0.0038,-0.005,-0.0069,-0.0089,-0.0099,-0.0121,-0.0142,-0.0132,-0.0151,-0.0156,-0.0112,-0.0113,-0.0113,-0.0114,0,0,0.0084,0.0094,0.0098,0.011,0.0105,0.0111,0.0115,0.0112,0.0117,0.0086,0.0084,0.0044,0.0017,-0.0,-0.0033,-0.0068,-0.0096,-0.0095,-0.0098,-0.0113,-0.0167,-0.0154,-0.0159,-0.0125,-0.0126,-0.0126,-0.0171,0,0.0112,0.0143,0.0138,0.0168,0.0184,0.0167,0.0177,0.0168,0.0151,0.0142,0.0093,0.0078,0.0038,0.0027,-0.0017,-0.0075,-0.0108,-0.0081,-0.0175,-0.0177,-0.0169,-0.0164,-0.0133,-0.0169,-0.0176,-0.0177,-0.0178,0,0.0145,0.0163,0.02,0.0221,0.0227,0.024,0.0252,0.0256,0.023,0.0217,0.018,0.0139,0.0089,0.0051,-0.005,-0.0031,-0.0092,-0.0142,-0.0146,-0.0153,-0.0174,-0.0184,-0.0178,-0.0302,-0.0185,-0.0185,-0.0184,0,0.0181,0.0208,0.0242,0.025,0.0267,0.0283,0.0291,0.028,0.0296,0.0263,0.0264,0.0187,0.0165,0.0064,-0.0035,-0.0047,-0.0144,-0.0177,-0.0223,-0.0222,-0.0223,-0.0221,-0.0349,-0.0251,-0.0251,-0.0251,-0.0251,0,0.0218,0.0245,0.0266,0.0288,0.0336,0.0328,0.0369,0.0364,0.0364,0.0395,0.0308,0.0317,0.0166,0.0094,-0.0015,-0.0122,-0.0131,-0.0216,-0.0236,-0.0206,-0.0202,-0.0332,-0.0407,-0.0252,-0.0252,-0.0252,-0.0251,0,0.0254,0.0265,0.031,0.0341,0.0358,0.0393,0.0436,0.0463,0.0452,0.0489,0.0484,0.0416,0.0328,0.0179,0.0028,-0.0075,-0.0262,-0.0228,-0.0169,-0.0182,-0.0346,-0.0419,-0.0564,-0.0636,-0.0295,-0.0295,-0.0295,0,0.0274,0.0303,0.0358,0.0395,0.0415,0.0464,0.0505,0.0513,0.0554,0.0566,0.0597,0.052,0.0496,0.0275,0.0073,-0.0117,-0.025,-0.0217,-0.0243,-0.0349,-0.0447,-0.05,-0.0555,-0.0226,-0.0225,-0.0225,-0.0224,0,0.0319,0.034,0.0381,0.0458,0.0512,0.0573,0.0635,0.0684,0.0709,0.0748,0.0795,0.0773,0.0569,0.0387,0.0117,-0.0016,-0.0305,-0.0213,-0.035,-0.0424,-0.0464,-0.0544,-0.0193,-0.022,-0.0221,-0.0221,-0.0221,-0.0221,0.0356,0.0394,0.0453,0.0528,0.0593,0.068,0.0747,0.0822,0.0912,0.0987,0.0958,0.0963,0.0677,0.0315,0.0102,-0.0255,-0.0285,-0.0363,-0.0447,-0.0493,-0.0558,-0.0183,-0.0218,-0.0218,-0.0218,-0.0219,-0.0219,0,0.0401,0.0446,0.0518,0.061,0.0691,0.0716,0.0836,0.0915,0.1044,0.1113,0.1158,0.1036,0.0694,0.0327,-0.016,-0.0435,-0.0554,-0.0591,-0.0676,-0.0727,-0.0412,-0.0403,-0.0446,-0.0445,-0.0445,-0.0445,-0.0445,-0.0445,0.0427,0.0502,0.054,0.068,0.0747,0.0868,0.0944,0.1069,0.1158,0.1258,0.1273,0.1241,0.0967,0.0087,-0.0537,-0.0691,-0.0907,-0.0935,-0.1076,-0.0869,-0.0855,-0.0841,-0.0851,-0.0987,-0.0987,-0.1343,-0.1347,-0.1349]}],[{"header":{"parameterUnit":"m.s-1","parameterCategory":2,"la1":30.2991,"la2":30.254,"lo1":-89.0895,"lo2":-89.0444,"dy":0.0017,"dx":0.0017,"nx":28,"ny":28,"refTime":"2023-10-07T21:00:00:Z","depth":"2","parameterNumber":2,"parameterNumberName":"U-component_of_CURRENTS"},"data":[0,0,0,0,0,0,0,0,0,0,0,0,0,0,0,0,0,0,0,0,0,0,0,0,0,0,0,0,0,0,0,0,0,0,0,0,0,0,0,0,0,0,0,0,0,0,0,0,0,0,0,0,0,0,0,0,0,0,0.2022,0.2022,0,0.2029,0.2029,0.2029,0.2033,0.2033,0.2033,0.2033,0.2049,0.2049,0.2049,0,0,0,0,0,0,0,0,0,0,0,0,0,0.2008,0.2008,0.2022,0.2022,0.2022,0.2029,0.2029,0.2029,0.2033,0.2033,0.2033,0.2033,0.2049,0.2049,0.2049,0,0,0,0,0,0,0,0,0,0,0,0,0,0.2013,0.2008,0.2022,0.2026,0.2027,0.2029,0.2029,0.2029,0.2032,0.2033,0.2033,0.2033,0.2049,0.2049,0.2049,0.2048,0,0,0.2051,0.2051,0,0,0,0,0,0,0,0,0.2013,0.2013,0.2025,0.2026,0.2026,0.2032,0.203,0.2036,0.2032,0.2029,0.2033,0.2033,0.2045,0.2045,0.2044,0.2048,0.2049,0.2051,0.2051,0.2051,0.2051,0,0,0,0,0,0,0,0.2012,0.2013,0.2023,0.2025,0.2026,0.2027,0.2027,0.2031,0.2034,0.2029,0.203,0.2033,0.2045,0.2044,0.2044,0.2049,0.2051,0.2051,0.2051,0.2052,0.2066,0.2066,0,0,0,0,0,0,0.2015,0.2013,0.2023,0.2023,0.2022,0.2027,0.2028,0.2028,0.2034,0.2036,0.2033,0.2033,0.2043,0.2044,0.2045,0.2068,0.2051,0.2052,0.2052,0.2065,0.2066,0.2066,0,0,0,0,0,0,0.2014,0.2015,0.2023,0.202,0.2021,0.2027,0.2028,0.2028,0.2034,0.2037,0.2038,0.2038,0.2043,0.2044,0.2052,0.2067,0.2052,0.2052,0.2065,0.2066,0.2066,0.2097,0,0,0,0,0,0,0.2014,0.2015,0.2017,0.202,0.2021,0.2032,0.2028,0.2028,0.2036,0.2036,0.2042,0.2043,0.2043,0.2051,0.2052,0.2068,0.2053,0.2065,0.2065,0.2066,0.2096,0.2099,0.2101,0,0,0,0,0,0.2013,0.2016,0.2017,0.2019,0.2024,0.2032,0.2033,0.2037,0.2036,0.2041,0.2041,0.2043,0.2053,0.2051,0.2053,0.2069,0.2065,0.2065,0.2066,0.2095,0.2098,0.2101,0,0,0,0,0,0,0.2011,0.2017,0.2018,0.2022,0.2031,0.2034,0.2038,0.204,0.2044,0.2045,0.2045,0.2046,0.206,0.2055,0.2053,0.2072,0.206,0.206,0.2082,0.2084,0.2087,0.2106,0.2053,0,0,0,0,0,0.2011,0.2015,0.2022,0.2027,0.203,0.2035,0.2039,0.2043,0.2047,0.2049,0.2051,0.2053,0.2061,0.2065,0.2068,0.2077,0.2106,0.2087,0.2089,0.2092,0.2107,0.2164,0.2174,0.2067,0.2067,0.2067,0,0,0.201,0.2016,0.2017,0.2027,0.2031,0.2041,0.2037,0.2047,0.2058,0.205,0.2061,0.2063,0.2064,0.2077,0.2082,0.2076,0.2135,0.2092,0.2094,0.2109,0.2166,0.2177,0.2187,0.2067,0.2067,0.2067,0,0,0.2013,0.2016,0.2021,0.203,0.2043,0.2048,0.2053,0.2059,0.2065,0.2076,0.2074,0.2085,0.209,0.2098,0.2103,0.2118,0.2147,0.2116,0.2146,0.2201,0.2211,0.222,0.227,0.2283,0.2116,0.2116,0.2117,0,0.2014,0.202,0.2025,0.2036,0.2046,0.2052,0.2064,0.2071,0.208,0.2093,0.2084,0.211,0.2103,0.2135,0.2137,0.2126,0.2164,0.2137,0.2207,0.2217,0.2226,0.2274,0.2289,0.2118,0.2118,0.2118,0.2118,0,0.2019,0.2029,0.2034,0.205,0.2062,0.2073,0.2088,0.2102,0.2109,0.2119,0.2151,0.2148,0.2171,0.2164,0.2155,0.2211,0.222,0.2207,0.2206,0.2239,0.2287,0.2302,0.212,0.212,0.2119,0.2119,0,0,0.2008,0.2033,0.2035,0.2049,0.2072,0.2082,0.2109,0.2137,0.2168,0.2174,0.2219,0.2219,0.2231,0.2236,0.2232,0.2267,0.235,0.2267,0.2269,0.2327,0.2484,0.2419,0.2428,0.236,0.2363,0.2365,0.2493,0,0.2011,0.2033,0.2047,0.2072,0.2085,0.2109,0.2136,0.2166,0.2194,0.2238,0.2251,0.2287,0.2255,0.2278,0.2311,0.2348,0.2391,0.2317,0.2434,0.2438,0.2385,0.2444,0.2214,0.2303,0.2507,0.2509,0.2511,0,0.201,0.2027,0.205,0.2092,0.2101,0.212,0.218,0.2208,0.2271,0.2298,0.2345,0.2364,0.242,0.2385,0.2484,0.2446,0.2473,0.2491,0.2496,0.2438,0.2399,0.2302,0.2322,0.2536,0.2534,0.2532,0.253,0,0.1994,0.2029,0.2049,0.206,0.2107,0.2132,0.2164,0.2226,0.2267,0.235,0.2399,0.2461,0.2514,0.256,0.2588,0.2559,0.2697,0.266,0.2626,0.2622,0.245,0.2426,0.2737,0.2737,0.2737,0.2737,0.2736,0,0.1988,0.2004,0.2045,0.2055,0.209,0.2131,0.2186,0.2232,0.2317,0.2374,0.2433,0.2497,0.2566,0.2638,0.2646,0.2689,0.2751,0.2656,0.2659,0.2452,0.2427,0.264,0.2627,0.2741,0.274,0.2739,0.2738,0,0.1964,0.1988,0.2014,0.2064,0.2081,0.211,0.2189,0.2235,0.2324,0.2411,0.2445,0.2566,0.266,0.2709,0.28,0.2769,0.2805,0.2797,0.2546,0.2517,0.2682,0.2669,0.2794,0.2793,0.2792,0.2791,0.279,0,0.1952,0.1962,0.2009,0.2026,0.2048,0.2097,0.2133,0.2222,0.2276,0.2436,0.2477,0.2613,0.2676,0.279,0.2762,0.2785,0.2819,0.258,0.2468,0.2701,0.2692,0.268,0.2669,0.2257,0.2252,0.2248,0.2245,0,0.1931,0.1948,0.1969,0.1999,0.2031,0.2068,0.2129,0.2174,0.2287,0.2364,0.2478,0.2551,0.2658,0.2579,0.261,0.258,0.2554,0.2498,0.2833,0.2269,0.2203,0.2191,0.2196,0.2209,0.2212,0.2215,0.2217,0.2218,0.1914,0.1918,0.1942,0.1966,0.1996,0.2024,0.2033,0.2101,0.2167,0.224,0.2372,0.2383,0.2417,0.2344,0.2281,0.2225,0.2399,0.227,0.228,0.2294,0.22,0.2135,0.2111,0.2114,0.2116,0.2119,0.2121,0,0.1876,0.1886,0.1908,0.1919,0.1915,0.1961,0.201,0.1986,0.2008,0.2084,0.2135,0.1968,0.1927,0.1957,0.1819,0.1829,0.1782,0.1747,0.1655,0.1693,0.1727,0.16,0.1354,0.1352,0.1349,0.1347,0,0,0.1857,0.1848,0.1852,0.1824,0.1836,0.1803,0.1812,0.1781,0.1791,0.1748,0.1718,0.1834,0.1904,0.1597,0.1565,0.1436,0.1549,0.1378,0.1996,0.1928,0.1958,0.2039,0.1889,0,0,0,0,0]},{"header":{"parameterUnit":"m.s-1","parameterCategory":2,"la1":30.2991,"la2":30.254,"lo1":-89.0895,"lo2":-89.0444,"dy":0.0017,"dx":0.0017,"nx":28,"ny":28,"refTime":"2023-10-07T21:00:00:Z","depth":"2","parameterNumber":3,"parameterNumberName":"V-component_of_CURRENTS"},"data":[0,0,0,0,0,0,0,0,0,0,0,0,0,0,0,0,0,0,0,0,0,0,0,0,0,0,0,0,0,0,0,0,0,0,0,0,0,0,0,0,0,0,0,0,0,0,0,0,0,0,0,0,0,0,0,0,0,0,0.0081,0.0081,0,0.0047,0.0047,0.0047,0.002,0.002,0.002,0.0019,-0.0038,-0.004,-0.0041,0,0,0,0,0,0,0,0,0,0,0,0,0,0.0088,0.0089,0.0081,0.0081,0.008,0.0048,0.0047,0.0047,0.002,0.002,0.0019,0.0019,-0.0038,-0.004,-0.0041,0,0,0,0,0,0,0,0,0,0,0,0,0,0.0073,0.0089,0.0081,0.0063,0.0061,0.0048,0.0047,0.0046,0.002,0.002,0.0019,0.0019,-0.0038,-0.0039,-0.0041,-0.0046,0,0,-0.0047,-0.0048,0,0,0,0,0,0,0,0,0.0074,0.0073,0.0066,0.0064,0.0062,0.0038,0.0028,0.0014,0.002,0.0035,0.0019,0.0019,-0.0015,-0.0019,-0.0024,-0.0049,-0.0052,-0.0048,-0.0049,-0.005,-0.005,0,0,0,0,0,0,0,0.0075,0.0074,0.0067,0.0066,0.0063,0.0045,0.0043,0.0026,0.0012,0.0034,0.0032,0.0029,-0.0016,-0.0022,-0.0026,-0.0052,-0.0048,-0.0049,-0.0051,-0.0051,-0.0082,-0.0082,0,0,0,0,0,0,0.0082,0.0075,0.0068,0.0066,0.0068,0.0046,0.0043,0.0046,0.0013,0.0008,0.0029,0.0028,-0.0019,-0.0023,-0.0028,-0.0032,-0.005,-0.0051,-0.0053,-0.0082,-0.0082,-0.0081,0,0,0,0,0,0,0.0082,0.0082,0.007,0.007,0.0067,0.0046,0.0049,0.0045,0.0039,0.0009,0.0004,0.0027,-0.0019,-0.0025,-0.0039,-0.0035,-0.0052,-0.0054,-0.0083,-0.0082,-0.0082,-0.0044,0,0,0,0,0,0,0.0083,0.0083,0.0086,0.0071,0.0067,0.0067,0.005,0.0045,0.0038,0.0036,0.0006,0.0,-0.002,-0.0035,-0.004,-0.0038,-0.0056,-0.0083,-0.0083,-0.0082,-0.0045,-0.0042,-0.0039,0,0,0,0,0,0.0083,0.0093,0.0087,0.0086,0.0073,0.0068,0.0065,0.0048,0.0038,0.004,0.002,0.0001,-0.0035,-0.0037,-0.0043,-0.0041,-0.0084,-0.0083,-0.0082,-0.0047,-0.0042,-0.0039,0,0,0,0,0,0,0.0097,0.0091,0.0084,0.009,0.0081,0.0064,0.0063,0.0052,0.0037,0.0034,0.0005,-0.0001,-0.0012,-0.003,-0.0031,-0.0047,-0.0062,-0.0063,-0.0033,-0.003,-0.0026,-0.0017,-0.0057,0,0,0,0,0,0.0103,0.0109,0.0097,0.0102,0.0099,0.0081,0.0076,0.0067,0.0052,0.0045,0.0024,0.0003,-0.0013,-0.0023,-0.004,-0.0049,-0.0071,-0.0051,-0.0048,-0.0045,-0.0041,-0.0077,-0.0077,-0.0079,-0.0079,-0.0079,0,0,0.0109,0.0106,0.0109,0.0105,0.0096,0.0099,0.0078,0.0075,0.0077,0.0041,0.0037,0.0014,-0.0012,-0.0021,-0.0027,-0.0036,-0.0054,-0.0044,-0.0042,-0.0039,-0.0076,-0.0076,-0.0076,-0.0078,-0.0078,-0.0078,0,0,0.0127,0.0123,0.0133,0.013,0.0122,0.0113,0.0115,0.0099,0.0093,0.0086,0.0061,0.0041,0.0018,-0.0001,-0.0014,-0.0002,-0.0034,-0.0007,0.0014,-0.0021,-0.0021,-0.0021,-0.0039,-0.0042,-0.0007,-0.0007,-0.0007,0,0.0133,0.0148,0.0135,0.0144,0.0147,0.0123,0.0136,0.0126,0.0108,0.0105,0.0091,0.0053,0.0028,0.0014,0.0017,0.0004,-0.0015,0.0001,-0.0017,-0.0018,-0.0019,-0.0037,-0.0041,-0.0005,-0.0005,-0.0006,-0.0006,0,0.016,0.017,0.0176,0.0182,0.0182,0.019,0.0178,0.0175,0.0162,0.0147,0.0132,0.0095,0.0072,0.0059,0.004,0.0022,0.0013,-0.0008,-0.0027,-0.0017,-0.0036,-0.004,-0.0002,-0.0003,-0.0004,-0.0004,0,0,0.0182,0.0194,0.0197,0.0211,0.0206,0.0213,0.0217,0.0216,0.0224,0.0192,0.0194,0.0153,0.0126,0.0111,0.0079,0.0046,0.002,0.0019,0.0016,0.0002,-0.0045,-0.0038,-0.0042,-0.0007,-0.0007,-0.0008,-0.0052,0,0.0208,0.0241,0.0237,0.0267,0.0284,0.0269,0.028,0.0273,0.0258,0.0252,0.0205,0.0192,0.0149,0.0138,0.0097,0.0041,0.0009,0.0034,-0.0053,-0.0056,-0.0051,-0.0046,-0.0008,-0.0043,-0.0056,-0.0057,-0.0057,0,0.024,0.0259,0.0297,0.0321,0.0328,0.0341,0.0357,0.0362,0.0341,0.0329,0.0295,0.0256,0.0209,0.0169,0.0072,0.009,0.0028,-0.0021,-0.0025,-0.0034,-0.0056,-0.0057,-0.005,-0.0065,-0.0064,-0.0064,-0.0063,0,0.0275,0.0303,0.0339,0.0347,0.0367,0.0384,0.0394,0.0387,0.0405,0.0376,0.038,0.0308,0.0286,0.0189,0.009,0.0076,-0.0014,-0.0047,-0.0098,-0.0098,-0.009,-0.0088,-0.0118,-0.0118,-0.0118,-0.0118,-0.0118,0,0.0311,0.0339,0.0361,0.0384,0.0434,0.0428,0.0472,0.047,0.0473,0.0507,0.0423,0.0435,0.0289,0.022,0.0112,0.0005,0.0,-0.0091,-0.0111,-0.0074,-0.007,-0.0112,-0.011,-0.012,-0.0119,-0.0119,-0.0119,0,0.0345,0.0357,0.0404,0.0437,0.0455,0.0491,0.0537,0.0567,0.0558,0.0598,0.0594,0.0531,0.0444,0.03,0.0155,0.0053,-0.0063,-0.0099,-0.0035,-0.0048,-0.0131,-0.0127,-0.017,-0.0171,-0.0171,-0.0171,-0.0171,0,0.0365,0.0394,0.0451,0.0488,0.0509,0.056,0.0602,0.0614,0.0658,0.0672,0.0705,0.0629,0.0604,0.039,0.0195,0.0007,-0.0035,-0.0085,-0.0112,-0.0122,-0.0138,-0.0134,-0.013,-0.0084,-0.0083,-0.0083,-0.0082,0,0.0409,0.043,0.0472,0.0549,0.0604,0.0668,0.0732,0.0781,0.081,0.0848,0.0892,0.0868,0.067,0.0491,0.0226,0.0104,-0.0057,-0.008,-0.0112,-0.0072,-0.0043,-0.0057,-0.0056,-0.0078,-0.0078,-0.0078,-0.0079,-0.0079,0.0445,0.0483,0.0543,0.0617,0.0684,0.0773,0.0841,0.0916,0.1005,0.1068,0.1041,0.1008,0.0786,0.0457,0.0231,-0.0014,-0.001,-0.0101,-0.0101,-0.0103,-0.0081,-0.0053,-0.0085,-0.0085,-0.0085,-0.0086,-0.0086,0,0.049,0.0534,0.0607,0.0699,0.0782,0.0807,0.0929,0.1006,0.1129,0.1164,0.1196,0.1003,0.0787,0.0518,0.0165,-0.0043,-0.0063,-0.0112,-0.0095,-0.0097,-0.0099,-0.0077,-0.008,-0.0081,-0.0082,-0.0083,0,0,0.0517,0.0592,0.063,0.077,0.0836,0.0959,0.1035,0.1154,0.1217,0.1272,0.1242,0.1173,0.0858,0.06,0.0319,0.0111,0.0055,0.0078,0.0103,0.0156,0.0156,-0.0056,-0.0019,0,0,0,0,0]}],[{"header":{"parameterUnit":"m.s-1","parameterCategory":2,"la1":30.2991,"la2":30.254,"lo1":-89.0895,"lo2":-89.0444,"dy":0.0017,"dx":0.0017,"nx":28,"ny":28,"refTime":"2023-10-07T21:00:00:Z","depth":"4","parameterNumber":2,"parameterNumberName":"U-component_of_CURRENTS"},"data":[0,0,0,0,0,0,0,0,0,0,0,0,0,0,0,0,0,0,0,0,0,0,0,0,0,0,0,0,0,0,0,0,0,0,0,0,0,0,0,0,0,0,0,0,0,0,0,0,0,0,0,0,0,0,0,0,0,0,0.1313,0.1313,0,0.1344,0.1344,0.1344,0.1384,0.1385,0.1386,0.1386,0.143,0.143,0.1431,0,0,0,0,0,0,0,0,0,0,0,0,0,0.1266,0.1267,0.1313,0.1313,0.1314,0.1344,0.1344,0.1344,0.1384,0.1385,0.1386,0.1387,0.143,0.143,0.1431,0,0,0,0,0,0,0,0,0,0,0,0,0,0.1289,0.1267,0.1312,0.1338,0.1341,0.1344,0.1344,0.1344,0.1384,0.1385,0.1386,0.1387,0.143,0.143,0.1431,0.1411,0,0,0.1433,0.1433,0,0,0,0,0,0,0,0,0.1288,0.1291,0.1334,0.1336,0.134,0.1363,0.1344,0.1368,0.1383,0.1366,0.1386,0.1388,0.1409,0.1411,0.1412,0.1413,0.1415,0.1433,0.1433,0.1434,0.1434,0,0,0,0,0,0,0,0.1286,0.1289,0.1323,0.1334,0.1338,0.1341,0.1346,0.1348,0.1379,0.1367,0.1371,0.1376,0.141,0.1411,0.1413,0.1416,0.1433,0.1434,0.1434,0.1434,0.1494,0.1495,0,0,0,0,0,0,0.1285,0.1288,0.1322,0.1324,0.1318,0.1341,0.1346,0.1353,0.1379,0.1384,0.1375,0.1378,0.141,0.1413,0.1415,0.1478,0.1434,0.1434,0.1435,0.1493,0.1494,0.1496,0,0,0,0,0,0,0.1284,0.1288,0.1321,0.1308,0.1313,0.1341,0.1348,0.1353,0.1385,0.1385,0.1391,0.1407,0.1411,0.1414,0.1446,0.1477,0.1435,0.1435,0.1492,0.1493,0.1495,0.1549,0,0,0,0,0,0,0.1283,0.1288,0.1305,0.1308,0.1314,0.1344,0.1347,0.1353,0.1386,0.139,0.1413,0.1417,0.1412,0.1445,0.1447,0.1477,0.1436,0.149,0.1492,0.1495,0.1546,0.1552,0.1558,0,0,0,0,0,0.1281,0.1296,0.1306,0.1311,0.1333,0.1345,0.1348,0.137,0.1386,0.1403,0.1422,0.1418,0.1461,0.1447,0.1448,0.1479,0.1489,0.1492,0.1494,0.1543,0.1551,0.1558,0,0,0,0,0,0,0.1286,0.1302,0.1313,0.1333,0.1349,0.1353,0.1375,0.1386,0.1413,0.1429,0.1429,0.1434,0.1474,0.1467,0.1452,0.1503,0.1476,0.1479,0.1512,0.152,0.1526,0.153,0.1436,0,0,0,0,0,0.1294,0.1314,0.1324,0.1345,0.1355,0.137,0.1384,0.1399,0.1416,0.1431,0.1446,0.1464,0.1479,0.1494,0.1503,0.1529,0.1528,0.1551,0.1557,0.1562,0.1567,0.1582,0.159,0.1505,0.1505,0.1505,0,0,0.1303,0.1315,0.1327,0.1349,0.1364,0.1381,0.1383,0.1413,0.1435,0.143,0.1475,0.1487,0.1491,0.1523,0.154,0.1527,0.1591,0.1566,0.157,0.1572,0.1586,0.1594,0.1602,0.1507,0.1506,0.1506,0,0,0.1318,0.1342,0.136,0.1375,0.1404,0.1411,0.1426,0.1448,0.1471,0.1506,0.1512,0.1542,0.1566,0.1575,0.1581,0.1626,0.1622,0.1636,0.1674,0.1689,0.1696,0.1702,0.1729,0.1737,0.1641,0.1641,0.1641,0,0.1331,0.1351,0.1368,0.1387,0.1406,0.1428,0.1449,0.147,0.1502,0.1524,0.1532,0.1582,0.1588,0.1622,0.1644,0.164,0.1653,0.1644,0.1697,0.1702,0.1708,0.1734,0.1742,0.1644,0.1643,0.1643,0.1643,0,0.1347,0.1376,0.139,0.1421,0.1443,0.1468,0.1493,0.1528,0.156,0.1577,0.1631,0.1642,0.1673,0.1683,0.168,0.1726,0.1726,0.1701,0.1676,0.172,0.1745,0.1752,0.1648,0.1647,0.1646,0.1645,0,0,0.134,0.1391,0.14,0.1422,0.1465,0.148,0.1528,0.1567,0.1605,0.1644,0.1688,0.1724,0.1742,0.175,0.1755,0.1771,0.1827,0.1763,0.1762,0.1789,0.1879,0.1775,0.1773,0.1815,0.1817,0.1818,0.1888,0,0.135,0.1389,0.1415,0.1459,0.1479,0.152,0.156,0.1604,0.1646,0.1694,0.1721,0.1766,0.1764,0.1793,0.181,0.182,0.1848,0.1811,0.1834,0.1835,0.1735,0.1778,0.1821,0.1893,0.1895,0.1896,0.1897,0,0.1349,0.1378,0.1421,0.1479,0.1494,0.1531,0.1602,0.1641,0.1709,0.1745,0.1796,0.1819,0.1868,0.185,0.1901,0.1882,0.1895,0.1896,0.1898,0.1784,0.1743,0.1837,0.191,0.1909,0.1908,0.1908,0.1907,0,0.1319,0.1379,0.1417,0.1436,0.1505,0.1547,0.1593,0.1665,0.1706,0.1788,0.1828,0.1879,0.1919,0.1936,0.1962,0.194,0.2005,0.1967,0.1888,0.1882,0.1931,0.1923,0.2004,0.2003,0.2003,0.2003,0.2003,0,0.1298,0.1332,0.1414,0.1432,0.1487,0.1545,0.1613,0.1668,0.1747,0.1793,0.186,0.19,0.1945,0.1985,0.1988,0.1968,0.2033,0.1904,0.189,0.1955,0.1949,0.1937,0.1929,0.2006,0.2005,0.2005,0.2004,0,0.125,0.1304,0.1351,0.144,0.1473,0.1516,0.1619,0.1658,0.1753,0.1815,0.1848,0.1936,0.1987,0.2025,0.206,0.1997,0.1988,0.197,0.2067,0.2057,0.185,0.1844,0.187,0.1867,0.1865,0.1862,0.186,0,0.1223,0.1246,0.1347,0.1379,0.1426,0.1501,0.1546,0.1649,0.1687,0.1821,0.1835,0.1934,0.1977,0.1944,0.1996,0.1997,0.1972,0.1956,0.1869,0.1851,0.1836,0.1834,0.1831,0.1856,0.1855,0.1855,0.1854,0,0.1171,0.1223,0.1262,0.1328,0.1385,0.1433,0.1509,0.1527,0.1639,0.1744,0.1772,0.1796,0.1853,0.187,0.1897,0.1892,0.1948,0.1927,0.1931,0.1849,0.1834,0.1821,0.1822,0.1845,0.1846,0.1847,0.1848,0,0.1137,0.115,0.121,0.1256,0.1319,0.1337,0.1391,0.1432,0.1483,0.1624,0.1636,0.1739,0.1835,0.182,0.1844,0.1832,0.1788,0.1704,0.1718,0.1729,0.1649,0.1607,0.1542,0,0,0,0,0,0.1089,0.1091,0.1129,0.1164,0.1221,0.1257,0.1346,0.1401,0.1514,0.1488,0.1554,0.1599,0.1628,0.1688,0.1644,0.1789,0.1801,0.173,0.1713,0.1793,0.1804,0.1721,0,0,0,0,0,0,0.1054,0.1086,0.1094,0.1074,0.1081,0.1126,0.1179,0.1261,0.1252,0.1376,0.1401,0.1495,0.1552,0.1632,0.161,0.1628,0.1582,0.1801,0.1797,0.1787,0.1797,0.1805,0.1724,0,0,0,0,0]},{"header":{"parameterUnit":"m.s-1","parameterCategory":2,"la1":30.2991,"la2":30.254,"lo1":-89.0895,"lo2":-89.0444,"dy":0.0017,"dx":0.0017,"nx":28,"ny":28,"refTime":"2023-10-07T21:00:00:Z","depth":"4","parameterNumber":3,"parameterNumberName":"V-component_of_CURRENTS"},"data":[0,0,0,0,0,0,0,0,0,0,0,0,0,0,0,0,0,0,0,0,0,0,0,0,0,0,0,0,0,0,0,0,0,0,0,0,0,0,0,0,0,0,0,0,0,0,0,0,0,0,0,0,0,0,0,0,0,0,0.0227,0.0227,0,0.0209,0.0209,0.0209,0.0198,0.0198,0.0198,0.0198,0.0172,0.0172,0.0171,0,0,0,0,0,0,0,0,0,0,0,0,0,0.0229,0.0229,0.0227,0.0227,0.0226,0.0209,0.0209,0.0208,0.0198,0.0198,0.0198,0.0198,0.0172,0.0172,0.0171,0,0,0,0,0,0,0,0,0,0,0,0,0,0.0222,0.0229,0.0227,0.0219,0.0218,0.0209,0.0209,0.0208,0.0198,0.0198,0.0198,0.0198,0.0173,0.0172,0.0171,0.0166,0,0,0.0168,0.0167,0,0,0,0,0,0,0,0,0.0222,0.0222,0.0221,0.022,0.0219,0.0206,0.02,0.0194,0.0198,0.0206,0.0198,0.0198,0.0183,0.0181,0.0178,0.0165,0.0164,0.0168,0.0167,0.0167,0.0166,0,0,0,0,0,0,0,0.0223,0.0222,0.022,0.022,0.0219,0.0209,0.0208,0.0199,0.0195,0.0205,0.0204,0.0202,0.0182,0.0179,0.0177,0.0163,0.0168,0.0167,0.0166,0.0166,0.0138,0.0137,0,0,0,0,0,0,0.0226,0.0223,0.022,0.0219,0.022,0.0209,0.0208,0.021,0.0195,0.0193,0.0203,0.0202,0.018,0.0178,0.0176,0.0173,0.0167,0.0166,0.0165,0.0138,0.0138,0.0137,0,0,0,0,0,0,0.0226,0.0226,0.0221,0.022,0.0219,0.0209,0.0211,0.021,0.0209,0.0193,0.0191,0.0204,0.018,0.0177,0.0171,0.0172,0.0165,0.0164,0.0138,0.0138,0.0137,0.0164,0,0,0,0,0,0,0.0227,0.0227,0.0231,0.0221,0.0219,0.0219,0.0211,0.0209,0.0208,0.0207,0.0193,0.0191,0.018,0.0172,0.017,0.017,0.0164,0.0138,0.0138,0.0138,0.0163,0.0165,0.0166,0,0,0,0,0,0.0227,0.0233,0.0231,0.0231,0.0225,0.022,0.0218,0.021,0.0208,0.0209,0.02,0.0191,0.0168,0.0172,0.0169,0.0169,0.0138,0.0138,0.0138,0.0163,0.0165,0.0166,0,0,0,0,0,0,0.0235,0.0232,0.023,0.0235,0.0229,0.0218,0.0219,0.0213,0.0207,0.0207,0.0192,0.0189,0.0182,0.0171,0.0175,0.0158,0.0151,0.015,0.0171,0.0172,0.0173,0.0188,0.0163,0,0,0,0,0,0.0239,0.0244,0.0237,0.0241,0.0239,0.023,0.0228,0.0223,0.0215,0.0212,0.0202,0.0189,0.0178,0.0172,0.0161,0.0155,0.0146,0.0151,0.0152,0.0153,0.0162,0.0155,0.0157,0.0136,0.0136,0.0136,0,0,0.0243,0.0242,0.0245,0.0243,0.0238,0.0241,0.0229,0.0227,0.0231,0.021,0.0211,0.0194,0.0177,0.0169,0.0165,0.0161,0.0151,0.0153,0.0154,0.0163,0.0155,0.0157,0.0159,0.0136,0.0136,0.0136,0,0,0.0254,0.0254,0.0261,0.026,0.0255,0.025,0.0252,0.0243,0.0241,0.0238,0.0222,0.0207,0.0192,0.0179,0.0171,0.0172,0.0159,0.0164,0.0184,0.0177,0.0179,0.0181,0.0162,0.0161,0.0165,0.0165,0.0165,0,0.0259,0.027,0.0262,0.0268,0.0272,0.0257,0.0268,0.0262,0.0251,0.0253,0.0242,0.0219,0.0198,0.0193,0.0188,0.0176,0.0168,0.0181,0.018,0.0182,0.0183,0.0163,0.0163,0.0166,0.0166,0.0166,0.0166,0,0.0274,0.0284,0.0288,0.0295,0.0296,0.0303,0.0295,0.0296,0.029,0.0282,0.0276,0.0247,0.0237,0.022,0.0204,0.0201,0.019,0.0184,0.018,0.0187,0.0165,0.0164,0.0168,0.0168,0.0167,0.0167,0,0,0.0285,0.0298,0.0302,0.0317,0.0315,0.0322,0.0326,0.0331,0.0345,0.0321,0.0335,0.0297,0.0282,0.0271,0.0245,0.0231,0.0219,0.0213,0.0212,0.0201,0.0199,0.0172,0.0168,0.0218,0.0218,0.0218,0.0176,0,0.0303,0.0329,0.0328,0.0356,0.0372,0.0366,0.0378,0.0378,0.0372,0.0379,0.0346,0.0345,0.0302,0.0299,0.0277,0.0241,0.022,0.0231,0.0188,0.0187,0.0168,0.0167,0.0219,0.0175,0.0175,0.0174,0.0174,0,0.0322,0.034,0.0373,0.0404,0.0411,0.0425,0.0452,0.046,0.0456,0.0452,0.0437,0.0413,0.0385,0.0351,0.0291,0.0302,0.0253,0.0218,0.0215,0.0184,0.0158,0.0168,0.0172,0.0172,0.0173,0.0173,0.0173,0,0.0346,0.0375,0.0409,0.0418,0.0443,0.0464,0.0479,0.0485,0.0506,0.0503,0.0515,0.0473,0.0464,0.0402,0.0313,0.0309,0.0245,0.0232,0.0158,0.0155,0.0182,0.018,0.0191,0.0192,0.0192,0.0192,0.0192,0,0.0369,0.0398,0.0428,0.0449,0.05,0.0503,0.0553,0.0559,0.0576,0.0607,0.056,0.0569,0.0478,0.0425,0.0339,0.0243,0.0263,0.0164,0.0146,0.0191,0.0191,0.018,0.0179,0.019,0.019,0.0191,0.0191,0,0.0389,0.0407,0.0453,0.0495,0.0516,0.0554,0.0609,0.0642,0.0649,0.0688,0.0692,0.0648,0.0573,0.0467,0.0363,0.0282,0.019,0.0148,0.0197,0.0183,0.0097,0.0098,0.0072,0.007,0.0069,0.0068,0.0068,0,0.0401,0.0428,0.0493,0.053,0.0554,0.0611,0.0654,0.068,0.0716,0.0734,0.0757,0.0698,0.0649,0.0483,0.0364,0.0195,0.0165,0.0113,0.0106,0.0101,0.0087,0.0089,0.0092,0.0066,0.0066,0.0066,0.0065,0,0.0427,0.0454,0.0494,0.057,0.0627,0.069,0.0751,0.0781,0.0811,0.082,0.0807,0.0715,0.0626,0.0484,0.0347,0.0227,0.0147,0.0102,0.0103,0.0096,0.0094,0.0081,0.0085,0.0062,0.0062,0.0063,0.0063,0,0.045,0.0483,0.0541,0.0607,0.0681,0.0748,0.0777,0.0816,0.0849,0.0857,0.0851,0.0746,0.0689,0.05,0.0379,0.0251,0.0216,0.0172,0.0169,0.0171,0.0204,0.0216,0.021,0,0,0,0,0,0.0467,0.0507,0.0572,0.0647,0.0719,0.0765,0.0834,0.0855,0.0883,0.0877,0.0863,0.0774,0.0589,0.0517,0.0384,0.0352,0.0191,0.0191,0.0137,0.0042,0.0046,0.0064,0,0,0,0,0,0,0.0481,0.0541,0.0573,0.0668,0.0723,0.0809,0.0855,0.0873,0.0869,0.0871,0.0777,0.0733,0.0556,0.0664,0.0379,0.0342,0.0287,0.0109,0.0106,0.0039,0.0043,0.0046,0.0067,0,0,0,0,0]}]]